Location: Bow
(51.5261°N, 0.0167°W)
Time: 22:19:21
(UTC+00:00)

Resurs 01 Rocket - Pass Details

Date: 18 September 2020
Orbit: 633 x 645 km, 98.0° (Epoch: 20 October)

Event Time Altitude Azimuth Distance (km) Brightness Sun altitude
Exits shadow 20:56:50 40° 224° (SW) 950 2.4 -25.2°
Maximum altitude 20:57:47 47° 261° (W) 858 2.4 -25.3°
Drops below altitude 10° 21:02:06 10° 336° (NNW) 2,054 5.1 -25.8°
Sets 21:04:24 0° 342° (NNW) 2,967 6.0 -26.1°
